When you browse on this site, cookies collect data to enhance your experience and personalize the content and advertising you see.
Visit our Privacy Policy to learn more. By continuing to use the site, you agree to this use of cookies and data.
  • In Belgium
  • List of Countries
  • For 7 days
  • Water Temperature
  • Satellite Maps
  • Weather Map
  • Weather Widgets
  • user-avatar
    Login

    Hourly Weather Gold Coast

    Today, 10 December, Monday

    Time Temperature Precipitation Wind Pressure Humidity
    00:00 +20°C° 0 mm 3 mps 759 mmHg 93%
    01:00 +20°C° 0 mm 3 mps 758 mmHg 93%
    02:00 +20°C° 0 mm 3 mps 758 mmHg 94%
    03:00 +20°C° 0 mm 3 mps 758 mmHg 94%
    04:00 +19°C° 0 mm 2 mps 757 mmHg 95%
    05:00 +21°C° 0 mm 2 mps 758 mmHg 89%
    06:00 +23°C° 0 mm 2 mps 758 mmHg 82%
    07:00 +25°C° 0 mm 2 mps 758 mmHg 76%
    08:00 +26°C° 0.1 mm 2 mps 758 mmHg 69%
    09:00 +28°C° 0.1 mm 3 mps 758 mmHg 62%
    10:00 +29°C° 0 mm 2 mps 758 mmHg 56%
    11:00 +30°C° 0 mm 3 mps 758 mmHg 53%
    12:00 +30°C° 0 mm 3 mps 757 mmHg 51%
    13:00 +31°C° 0 mm 3 mps 757 mmHg 48%
    14:00 +31°C° 0 mm 3 mps 757 mmHg 49%
    15:00 +32°C° 0 mm 4 mps 756 mmHg 50%
    16:00 +32°C° 0 mm 4 mps 756 mmHg 50%
    17:00 +28°C° 0 mm 4 mps 756 mmHg 59%
    18:00 +26°C° 0 mm 4 mps 757 mmHg 68%
    19:00 +23°C° 0 mm 4 mps 757 mmHg 77%
    20:00 +22°C° 0 mm 3 mps 758 mmHg 82%
    21:00 +21°C° 0 mm 3 mps 758 mmHg 87%
    22:00 +21°C° 0 mm 2 mps 759 mmHg 91%
    23:00 +20°C° 0 mm 2 mps 758 mmHg 92%

    Tomorrow, 11 December, Tuesday

    Time Temperature Precipitation Wind Pressure Humidity
    00:00 +20°C° 0 mm 2 mps 758 mmHg 93%
    01:00 +21°C° 0 mm 1 mps 758 mmHg 94%
    02:00 +21°C° 0 mm 1 mps 757 mmHg 94%
    03:00 +21°C° 0 mm 1 mps 757 mmHg 95%
    04:00 +21°C° 0 mm 1 mps 757 mmHg 95%
    05:00 +22°C° 0 mm 1 mps 757 mmHg 89%
    06:00 +23°C° 0 mm 1 mps 758 mmHg 82%
    07:00 +25°C° 0 mm 1 mps 758 mmHg 76%
    08:00 +27°C° 0 mm 1 mps 758 mmHg 66%
    09:00 +29°C° 0 mm 2 mps 758 mmHg 56%
    10:00 +31°C° 0 mm 2 mps 758 mmHg 46%
    11:00 +31°C° 0 mm 3 mps 758 mmHg 45%
    12:00 +33°C° 0 mm 3 mps 757 mmHg 43%
    13:00 +33°C° 0 mm 4 mps 757 mmHg 41%
    14:00 +32°C° 0 mm 4 mps 756 mmHg 45%
    15:00 +30°C° 0 mm 4 mps 756 mmHg 48%
    16:00 +29°C° 0 mm 4 mps 755 mmHg 52%
    17:00 +28°C° 0 mm 4 mps 756 mmHg 61%
    18:00 +26°C° 0 mm 4 mps 756 mmHg 70%
    19:00 +24°C° 0 mm 3 mps 756 mmHg 79%
    20:00 +22°C° 0 mm 3 mps 757 mmHg 83%
    21:00 +21°C° 0 mm 3 mps 758 mmHg 88%
    22:00 +21°C° 0 mm 2 mps 759 mmHg 92%
    23:00 +21°C° 0.1 mm 2 mps 758 mmHg 93%

    Day after tomorrow, 12 December, Wednesday

    Time Temperature Precipitation Wind Pressure Humidity
    00:00 +21°C° 0.1 mm 2 mps 758 mmHg 93%
    01:00 +21°C° 0.1 mm 2 mps 757 mmHg 93%
    02:00 +20°C° 0 mm 2 mps 757 mmHg 94%
    03:00 +20°C° 0 mm 2 mps 756 mmHg 95%
    04:00 +21°C° 0 mm 1 mps 756 mmHg 95%
    05:00 +22°C° 0 mm 1 mps 756 mmHg 89%
    06:00 +23°C° 0 mm 1 mps 756 mmHg 84%
    07:00 +25°C° 0 mm 1 mps 757 mmHg 78%
    08:00 +26°C° 0 mm 1 mps 757 mmHg 72%
    09:00 +27°C° 0 mm 1 mps 757 mmHg 66%
    10:00 +28°C° 0 mm 2 mps 757 mmHg 60%
    11:00 +28°C° 0 mm 2 mps 756 mmHg 59%
    12:00 +28°C° 0 mm 3 mps 756 mmHg 58%
    13:00 +29°C° 0 mm 3 mps 755 mmHg 56%
    14:00 +29°C° 0 mm 3 mps 755 mmHg 56%
    15:00 +29°C° 0 mm 4 mps 754 mmHg 56%
    16:00 +29°C° 0 mm 4 mps 754 mmHg 57%
    17:00 +27°C° 0 mm 4 mps 754 mmHg 62%
    18:00 +26°C° 0 mm 4 mps 754 mmHg 68%
    19:00 +23°C° 0 mm 4 mps 754 mmHg 74%
    20:00 +22°C° 0 mm 4 mps 755 mmHg 77%
    21:00 +22°C° 0 mm 4 mps 755 mmHg 80%
    22:00 +21°C° 0 mm 4 mps 755 mmHg 84%
    23:00 +21°C° 0 mm 3 mps 755 mmHg 85%

    13 December, Thursday

    Time Temperature Precipitation Wind Pressure Humidity
    00:00 +21°C° 0 mm 3 mps 754 mmHg 86%
    01:00 +21°C° 0 mm 3 mps 754 mmHg 87%
    02:00 +21°C° 0 mm 3 mps 754 mmHg 88%
    03:00 +20°C° 0 mm 4 mps 754 mmHg 88%
    04:00 +20°C° 0 mm 4 mps 753 mmHg 89%
    05:00 +21°C° 0 mm 4 mps 753 mmHg 85%
    06:00 +22°C° 0 mm 4 mps 753 mmHg 80%
    07:00 +24°C° 0 mm 3 mps 753 mmHg 76%
    08:00 +26°C° 0 mm 4 mps 753 mmHg 66%
    09:00 +29°C° 0 mm 5 mps 753 mmHg 57%
    10:00 +32°C° 0 mm 5 mps 752 mmHg 48%
    11:00 +33°C° 0 mm 6 mps 752 mmHg 47%
    12:00 +33°C° 0 mm 6 mps 751 mmHg 46%
    13:00 +34°C° 0 mm 6 mps 750 mmHg 44%
    14:00 +33°C° 0.4 mm 6 mps 750 mmHg 51%
    15:00 +30°C° 0.4 mm 7 mps 749 mmHg 58%
    16:00 +29°C° 0.4 mm 7 mps 749 mmHg 64%
    17:00 +27°C° 1.2 mm 7 mps 750 mmHg 74%
    18:00 +26°C° 1.2 mm 6 mps 750 mmHg 83%
    19:00 +23°C° 1.2 mm 6 mps 751 mmHg 92%
    20:00 +23°C° 0.4 mm 6 mps 751 mmHg 92%
    21:00 +23°C° 0.4 mm 7 mps 751 mmHg 92%
    22:00 +23°C° 0.4 mm 7 mps 751 mmHg 92%
    23:00 +23°C° 0.2 mm 7 mps 750 mmHg 92%

    14 December, Friday

    Time Temperature Precipitation Wind Pressure Humidity
    00:00 +23°C° 0.2 mm 6 mps 750 mmHg 92%
    01:00 +23°C° 0.2 mm 6 mps 749 mmHg 92%
    02:00 +23°C° 0 mm 6 mps 749 mmHg 91%
    03:00 +23°C° 0 mm 5 mps 749 mmHg 90%
    04:00 +23°C° 0 mm 5 mps 749 mmHg 89%
    05:00 +25°C° 0 mm 5 mps 749 mmHg 86%
    06:00 +25°C° 0 mm 5 mps 750 mmHg 82%
    07:00 +26°C° 0 mm 5 mps 750 mmHg 79%
    08:00 +27°C° 0 mm 5 mps 750 mmHg 75%
    09:00 +28°C° 0 mm 5 mps 750 mmHg 70%
    10:00 +30°C° 0 mm 5 mps 750 mmHg 65%
    11:00 +30°C° 0.1 mm 5 mps 750 mmHg 66%
    12:00 +30°C° 0.1 mm 6 mps 749 mmHg 67%
    13:00 +30°C° 0.1 mm 6 mps 749 mmHg 68%
    14:00 +30°C° 0.6 mm 6 mps 749 mmHg 71%
    15:00 +29°C° 0.6 mm 6 mps 749 mmHg 75%
    16:00 +29°C° 0.6 mm 6 mps 748 mmHg 78%
    17:00 +28°C° 1.3 mm 6 mps 749 mmHg 81%
    18:00 +27°C° 1.3 mm 7 mps 749 mmHg 84%
    19:00 +26°C° 1.3 mm 7 mps 750 mmHg 87%
    20:00 +26°C° 1.7 mm 7 mps 750 mmHg 87%
    21:00 +26°C° 1.7 mm 8 mps 751 mmHg 87%
    22:00 +26°C° 1.7 mm 8 mps 751 mmHg 88%
    23:00 +26°C° 1.1 mm 7 mps 751 mmHg 90%

    15 December, Saturday

    Time Temperature Precipitation Wind Pressure Humidity
    00:00 +24°C° 1.1 mm 6 mps 751 mmHg 91%
    01:00 +24°C° 1.1 mm 6 mps 751 mmHg 93%
    02:00 +24°C° 2.7 mm 6 mps 751 mmHg 94%
    03:00 +24°C° 2.7 mm 6 mps 751 mmHg 94%
    04:00 +24°C° 2.7 mm 6 mps 750 mmHg 94%
    05:00 +24°C° 1 mm 6 mps 751 mmHg 93%
    06:00 +26°C° 1 mm 7 mps 751 mmHg 91%
    07:00 +26°C° 1 mm 7 mps 752 mmHg 89%
    08:00 +27°C° 0.3 mm 7 mps 752 mmHg 85%
    09:00 +28°C° 0.3 mm 7 mps 752 mmHg 80%
    10:00 +29°C° 0.3 mm 7 mps 751 mmHg 76%
    11:00 +29°C° 0.3 mm 7 mps 751 mmHg 76%
    12:00 +29°C° 0.3 mm 8 mps 751 mmHg 77%
    13:00 +29°C° 0.3 mm 8 mps 751 mmHg 77%
    14:00 +28°C° 0.2 mm 8 mps 751 mmHg 80%
    15:00 +28°C° 0.2 mm 8 mps 750 mmHg 83%
    16:00 +27°C° 0.2 mm 8 mps 750 mmHg 86%
    17:00 +26°C° 0.1 mm 7 mps 751 mmHg 88%
    18:00 +26°C° 0.1 mm 7 mps 751 mmHg 89%
    19:00 +24°C° 0.1 mm 7 mps 752 mmHg 91%
    20:00 +24°C° 0.1 mm 7 mps 752 mmHg 91%
    21:00 +24°C° 0.1 mm 6 mps 753 mmHg 92%
    22:00 +24°C° 0.1 mm 6 mps 753 mmHg 92%
    23:00 +24°C° 0.1 mm 6 mps 753 mmHg 93%
    Show more